• In Hungary
  • List of Countries
  • For 7 days
  • Water Temperature
  • Satellite Maps
  • Weather Map
  • News
  • Weather Widgets
  • user-avatar
    Login

    Hourly Weather Baronissi

    Today, 24 September, Monday

    Time Temperature Precipitation Wind Pressure Humidity
    00:00 +21°C° 0 mm 2 mps 741 mmHg 82%
    01:00 +21°C° 0 mm 2 mps 741 mmHg 83%
    02:00 +21°C° 0 mm 2 mps 740 mmHg 84%
    03:00 +21°C° 0 mm 3 mps 740 mmHg 85%
    04:00 +21°C° 0 mm 3 mps 740 mmHg 86%
    05:00 +22°C° 0.1 mm 3 mps 740 mmHg 86%
    06:00 +22°C° 0.1 mm 3 mps 740 mmHg 85%
    07:00 +22°C° 0.1 mm 3 mps 740 mmHg 84%
    08:00 +25°C° 0.1 mm 3 mps 740 mmHg 78%
    09:00 +26°C° 0.1 mm 3 mps 740 mmHg 72%
    10:00 +27°C° 0.1 mm 3 mps 740 mmHg 67%
    11:00 +28°C° 0 mm 3 mps 740 mmHg 64%
    12:00 +29°C° 0 mm 3 mps 740 mmHg 60%
    13:00 +29°C° 0 mm 2 mps 740 mmHg 57%
    14:00 +29°C° 0.1 mm 2 mps 740 mmHg 59%
    15:00 +28°C° 0.1 mm 2 mps 740 mmHg 61%
    16:00 +28°C° 0.1 mm 2 mps 740 mmHg 63%
    17:00 +26°C° 0.2 mm 2 mps 741 mmHg 66%
    18:00 +25°C° 0.2 mm 3 mps 741 mmHg 70%
    19:00 +22°C° 0.2 mm 4 mps 742 mmHg 74%
    20:00 +21°C° 0 mm 5 mps 742 mmHg 73%
    21:00 +21°C° 0 mm 6 mps 743 mmHg 72%
    22:00 +20°C° 0 mm 6 mps 744 mmHg 71%
    23:00 +19°C° 0 mm 6 mps 744 mmHg 69%

    Tomorrow, 25 September, Tuesday

    Time Temperature Precipitation Wind Pressure Humidity
    00:00 +19°C° 0 mm 6 mps 744 mmHg 67%
    01:00 +17°C° 0 mm 6 mps 744 mmHg 65%
    02:00 +17°C° 0 mm 6 mps 744 mmHg 62%
    03:00 +17°C° 0 mm 6 mps 744 mmHg 60%
    04:00 +16°C° 0 mm 6 mps 744 mmHg 57%
    05:00 +17°C° 0 mm 7 mps 745 mmHg 57%
    06:00 +17°C° 0 mm 7 mps 745 mmHg 56%
    07:00 +17°C° 0 mm 7 mps 745 mmHg 56%
    08:00 +18°C° 0 mm 7 mps 746 mmHg 51%
    09:00 +20°C° 0 mm 7 mps 746 mmHg 46%
    10:00 +21°C° 0 mm 7 mps 746 mmHg 41%
    11:00 +22°C° 0 mm 7 mps 746 mmHg 39%
    12:00 +23°C° 0 mm 7 mps 746 mmHg 37%
    13:00 +23°C° 0 mm 7 mps 747 mmHg 35%
    14:00 +22°C° 0.1 mm 7 mps 746 mmHg 38%
    15:00 +21°C° 0.1 mm 7 mps 746 mmHg 41%
    16:00 +20°C° 0.1 mm 7 mps 746 mmHg 43%
    17:00 +18°C° 0 mm 7 mps 746 mmHg 47%
    18:00 +17°C° 0 mm 7 mps 746 mmHg 50%
    19:00 +16°C° 0 mm 7 mps 747 mmHg 53%
    20:00 +16°C° 0 mm 7 mps 747 mmHg 55%
    21:00 +16°C° 0 mm 7 mps 748 mmHg 56%
    22:00 +16°C° 0 mm 7 mps 748 mmHg 58%
    23:00 +15°C° 0 mm 7 mps 748 mmHg 59%

    Day after tomorrow, 26 September, Wednesday

    Time Temperature Precipitation Wind Pressure Humidity
    00:00 +15°C° 0 mm 7 mps 748 mmHg 60%
    01:00 +15°C° 0 mm 6 mps 748 mmHg 62%
    02:00 +14°C° 0 mm 6 mps 748 mmHg 62%
    03:00 +14°C° 0 mm 6 mps 748 mmHg 63%
    04:00 +14°C° 0 mm 6 mps 748 mmHg 64%
    05:00 +14°C° 0 mm 6 mps 749 mmHg 64%
    06:00 +14°C° 0 mm 6 mps 749 mmHg 63%
    07:00 +14°C° 0 mm 6 mps 749 mmHg 62%
    08:00 +16°C° 0 mm 6 mps 749 mmHg 57%
    09:00 +17°C° 0 mm 7 mps 750 mmHg 51%
    10:00 +18°C° 0 mm 7 mps 750 mmHg 46%
    11:00 +20°C° 0 mm 7 mps 750 mmHg 43%
    12:00 +21°C° 0 mm 6 mps 750 mmHg 41%
    13:00 +22°C° 0 mm 6 mps 750 mmHg 38%
    14:00 +21°C° 0 mm 6 mps 750 mmHg 38%
    15:00 +21°C° 0 mm 6 mps 750 mmHg 37%
    16:00 +20°C° 0 mm 6 mps 750 mmHg 37%
    17:00 +19°C° 0 mm 6 mps 750 mmHg 42%
    18:00 +16°C° 0 mm 5 mps 750 mmHg 46%
    19:00 +15°C° 0 mm 5 mps 751 mmHg 50%
    20:00 +14°C° 0 mm 4 mps 751 mmHg 53%
    21:00 +14°C° 0 mm 4 mps 751 mmHg 56%
    22:00 +13°C° 0 mm 3 mps 751 mmHg 59%
    23:00 +13°C° 0 mm 3 mps 751 mmHg 60%

    27 September, Thursday

    Time Temperature Precipitation Wind Pressure Humidity
    00:00 +13°C° 0 mm 3 mps 751 mmHg 61%
    01:00 +12°C° 0 mm 3 mps 751 mmHg 62%
    02:00 +12°C° 0 mm 3 mps 751 mmHg 61%
    03:00 +12°C° 0 mm 3 mps 750 mmHg 60%
    04:00 +12°C° 0 mm 3 mps 750 mmHg 59%
    05:00 +13°C° 0 mm 3 mps 750 mmHg 57%
    06:00 +13°C° 0 mm 3 mps 750 mmHg 55%
    07:00 +14°C° 0 mm 3 mps 750 mmHg 54%
    08:00 +17°C° 0 mm 3 mps 750 mmHg 50%
    09:00 +19°C° 0 mm 3 mps 750 mmHg 46%
    10:00 +21°C° 0 mm 3 mps 750 mmHg 42%
    11:00 +22°C° 0 mm 3 mps 750 mmHg 40%
    12:00 +24°C° 0 mm 3 mps 749 mmHg 38%
    13:00 +25°C° 0 mm 3 mps 749 mmHg 36%
    14:00 +25°C° 0 mm 4 mps 748 mmHg 37%
    15:00 +25°C° 0 mm 4 mps 748 mmHg 39%
    16:00 +25°C° 0 mm 5 mps 747 mmHg 41%
    17:00 +22°C° 0 mm 4 mps 747 mmHg 48%
    18:00 +20°C° 0 mm 4 mps 747 mmHg 55%
    19:00 +19°C° 0 mm 3 mps 746 mmHg 63%
    20:00 +18°C° 0 mm 3 mps 746 mmHg 66%
    21:00 +17°C° 0 mm 3 mps 746 mmHg 69%
    22:00 +17°C° 0 mm 3 mps 746 mmHg 72%
    23:00 +17°C° 0 mm 2 mps 745 mmHg 73%

    28 September, Friday

    Time Temperature Precipitation Wind Pressure Humidity
    00:00 +16°C° 0 mm 2 mps 745 mmHg 74%
    01:00 +16°C° 0 mm 2 mps 745 mmHg 74%
    02:00 +16°C° 0 mm 2 mps 744 mmHg 73%
    03:00 +16°C° 0 mm 2 mps 744 mmHg 73%
    04:00 +16°C° 0 mm 2 mps 743 mmHg 72%
    05:00 +16°C° 0 mm 2 mps 743 mmHg 70%
    06:00 +17°C° 0 mm 2 mps 743 mmHg 68%
    07:00 +17°C° 0 mm 2 mps 743 mmHg 66%
    08:00 +19°C° 0 mm 2 mps 743 mmHg 59%
    09:00 +21°C° 0 mm 2 mps 743 mmHg 52%
    10:00 +24°C° 0 mm 2 mps 743 mmHg 44%
    11:00 +26°C° 0 mm 2 mps 742 mmHg 41%
    12:00 +27°C° 0 mm 2 mps 742 mmHg 37%
    13:00 +28°C° 0 mm 3 mps 742 mmHg 34%
    14:00 +27°C° 0 mm 3 mps 741 mmHg 36%
    15:00 +27°C° 0 mm 3 mps 741 mmHg 37%
    16:00 +27°C° 0 mm 4 mps 741 mmHg 39%
    17:00 +25°C° 0 mm 3 mps 741 mmHg 45%
    18:00 +22°C° 0 mm 3 mps 741 mmHg 51%
    19:00 +21°C° 0 mm 2 mps 741 mmHg 57%
    20:00 +20°C° 0 mm 2 mps 740 mmHg 59%
    21:00 +19°C° 0 mm 2 mps 740 mmHg 61%
    22:00 +19°C° 0 mm 2 mps 740 mmHg 63%
    23:00 +19°C° 0 mm 1 mps 740 mmHg 64%

    29 September, Saturday

    Time Temperature Precipitation Wind Pressure Humidity
    00:00 +19°C° 0 mm 1 mps 740 mmHg 66%
    01:00 +19°C° 0 mm 1 mps 740 mmHg 67%
    02:00 +18°C° 0 mm 1 mps 739 mmHg 68%
    03:00 +18°C° 0 mm 1 mps 739 mmHg 68%
    04:00 +18°C° 0 mm 1 mps 739 mmHg 68%
    05:00 +18°C° 0 mm 1 mps 739 mmHg 67%
    06:00 +19°C° 0 mm 1 mps 739 mmHg 65%
    07:00 +19°C° 0 mm 1 mps 739 mmHg 63%
    08:00 +22°C° 0 mm 1 mps 740 mmHg 55%
    09:00 +24°C° 0 mm 1 mps 740 mmHg 47%
    10:00 +26°C° 0 mm 1 mps 740 mmHg 38%
    11:00 +27°C° 0 mm 1 mps 740 mmHg 37%
    12:00 +28°C° 0 mm 2 mps 740 mmHg 35%
    13:00 +28°C° 0 mm 2 mps 740 mmHg 33%
    14:00 +28°C° 0 mm 3 mps 740 mmHg 35%
    15:00 +27°C° 0 mm 3 mps 740 mmHg 38%
    16:00 +27°C° 0 mm 4 mps 740 mmHg 40%
    17:00 +25°C° 0 mm 3 mps 740 mmHg 47%
    18:00 +24°C° 0 mm 3 mps 740 mmHg 54%
    19:00 +21°C° 0 mm 2 mps 740 mmHg 61%
    20:00 +21°C° 0 mm 2 mps 741 mmHg 63%
    21:00 +20°C° 0 mm 2 mps 741 mmHg 65%
    22:00 +19°C° 0 mm 2 mps 741 mmHg 68%
    23:00 +19°C° 0 mm 2 mps 741 mmHg 68%
    Show more